Location: Unspecified
(44.4377°N, 88.0525°W)
Time: 06:25:27
(UTC-05:00)

Okean 3 - Pass Details

Date: 18 April 2019
Orbit: 576 x 602 km, 82.5° (Epoch: 23 May)

Event Time Altitude Azimuth Distance (km) Brightness Sun altitude
Exits shadow 03:45:29 13° 308° (NW) 1,762 5.8 -22.2°
Drops below altitude 10° 03:46:36 10° 323° (NW) 1,932 6.2 -22.1°
Sets 03:49:53 0° 350° (N) 2,833 7.4 -21.6°
